KG6QHD-13 Weather Reports


time (UTC)temp
F
wind
direction
speed
knots
gust
knots
rain 1hr
in
rain 24hr
in
rain mn
in
humidity
%
barometer
mb
20260508060543 51 259 3.5 12.2 0.00 0.05 0.00 42 1018.5
20260508055548 51 202 2.6 9.6 0.00 0.05 0.05 42 1018.4
20260508055052 51 265 4.3 8.7 0.00 0.05 0.05 42 1018.4
20260508054556 51 171 3.5 8.7 0.00 0.05 0.05 42 1018.4
20260508054048 51 242 3.5 7.8 0.00 0.05 0.05 42 1018.4
20260508053551 51 222 2.6 9.6 0.00 0.05 0.05 42 1018.3
20260508053103 51 223 3.5 9.6 0.00 0.05 0.05 42 1018.4
20260508052548 51 239 2.6 8.7 0.00 0.05 0.05 41 1018.4
20260508052047 51 202 5.2 8.7 0.00 0.05 0.05 41 1018.4
20260508051556 51 192 2.6 7.8 0.00 0.05 0.05 42 1018.4
20260508051048 51 209 0.9 7.8 0.00 0.05 0.05 42 1018.4
20260508050548 51 279 3.5 7.8 0.00 0.05 0.05 41 1018.4
20260508050057 51 180 1.7 7.0 0.00 0.05 0.05 42 1018.3
20260508045547 51 222 1.7 7.8 0.00 0.05 0.05 42 1018.4
20260508045044 50 232 4.3 7.8 0.00 0.05 0.05 42 1018.4
20260508044550 49 256 2.6 6.1 0.00 0.05 0.05 43 1018.4
20260508044049 49 223 0.9 4.3 0.00 0.05 0.05 43 1018.5
20260508043545 50 277 0.9 4.3 0.00 0.05 0.05 43 1018.5
20260508043054 50 0 0.0 2.6 0.00 0.05 0.05 45 1018.6
20260508042548 50 0 0.0 2.6 0.00 0.05 0.05 43 1018.6
20260508042049 51 101 0.9 2.6 0.00 0.05 0.05 41 1018.6
20260508041555 51 109 0.0 3.5 0.00 0.05 0.05 41 1018.6
20260508041049 52 0 0.0 5.2 0.00 0.05 0.05 40 1018.8
20260508040548 52 229 2.6 5.2 0.00 0.05 0.05 40 1018.9
20260508040059 53 301 1.7 5.2 0.00 0.05 0.05 39 1018.9
20260508035552 54 344 0.9 3.5 0.00 0.05 0.05 37 1019.0
20260508035048 54 126 0.0 8.7 0.00 0.05 0.05 35 1019.0
20260508034558 54 275 2.6 8.7 0.00 0.05 0.05 34 1018.8
20260508034044 54 256 6.1 9.6 0.00 0.05 0.05 33 1018.8
20260508033547 54 259 7.0 9.6 0.00 0.05 0.05 32 1018.7
20260508033054 54 269 5.2 8.7 0.00 0.05 0.05 33 1018.6
20260508032550 54 248 5.2 7.8 0.00 0.05 0.05 33 1018.6
20260508032045 54 254 4.3 7.8 0.00 0.05 0.05 34 1018.5
20260508031557 54 300 4.3 7.8 0.00 0.05 0.05 35 1018.4
20260508031048 54 265 4.3 7.8 0.00 0.05 0.05 34 1018.3
20260508030548 54 286 4.3 7.8 0.00 0.05 0.05 35 1018.2
20260508030053 54 300 3.5 7.0 0.00 0.05 0.05 34 1018.2
20260508025553 54 261 2.6 7.0 0.00 0.05 0.05 35 1018.0
20260508025044 54 276 4.3 8.7 0.00 0.05 0.05 33 1018.0
20260508024558 54 297 3.5 8.7 0.00 0.05 0.05 35 1018.0
20260508024045 54 284 5.2 8.7 0.00 0.05 0.05 35 1017.8
20260508023544 54 290 4.3 7.0 0.00 0.05 0.05 33 1017.8
20260508023051 54 257 3.5 7.0 0.00 0.05 0.05 34 1017.8
20260508022543 54 284 2.6 7.0 0.00 0.05 0.05 35 1017.7
20260508022044 54 240 3.5 7.0 0.00 0.05 0.05 33 1017.6
20260508021556 54 300 2.6 6.1 0.00 0.05 0.05 34 1017.5
20260508021044 54 290 2.6 4.3 0.00 0.05 0.05 35 1017.5
20260508020544 55 287 2.6 6.1 0.00 0.05 0.05 34 1017.4
20260508020051 56 277 2.6 6.1 0.00 0.05 0.05 30 1017.4
20260508015544 56 267 2.6 7.0 0.00 0.05 0.05 30 1017.3
20260508015044 57 263 2.6 7.0 0.00 0.05 0.05 29 1017.2
20260508014555 57 261 3.5 7.8 0.00 0.05 0.05 28 1017.2
20260508014044 57 225 4.3 7.8 0.00 0.05 0.05 28 1017.2
20260508013544 57 250 2.6 6.1 0.00 0.05 0.05 29 1017.2
20260508013052 58 255 2.6 7.0 0.00 0.05 0.05 28 1017.1
20260508012544 58 236 0.9 7.8 0.00 0.05 0.05 28 1017.1
20260508012045 58 235 2.6 7.8 0.00 0.05 0.05 27 1017.0
20260508011552 58 290 2.6 7.0 0.00 0.05 0.05 28 1017.1
20260508011046 58 228 0.9 7.0 0.00 0.05 0.05 32 1017.0
20260508010543 59 176 0.9 7.0 0.00 0.05 0.05 28 1017.0
20260508010054 59 318 1.7 4.3 0.00 0.05 0.05 28 1017.0
20260508005544 59 327 0.0 2.6 0.00 0.05 0.05 32 1017.0
20260508005049 59 209 0.0 2.6 0.00 0.05 0.05 31 1017.0
20260508004555 59 0 0.0 2.6 0.00 0.05 0.05 30 1016.9
20260508004044 59 0 0.0 2.6 0.00 0.05 0.05 32 1016.8
20260508003546 59 218 1.7 2.6 0.00 0.05 0.05 31 1016.8
20260508003052 59 202 0.0 4.3 0.00 0.05 0.05 27 1016.8
20260508002544 59 0 0.9 4.3 0.00 0.05 0.05 26 1016.8
20260508002047 59 231 1.7 3.5 0.00 0.05 0.05 28 1016.8
20260508001551 60 244 1.7 5.2 0.00 0.05 0.05 25 1016.8
20260508001044 60 244 2.6 8.7 0.00 0.05 0.05 25 1016.8
20260508000544 61 188 2.6 8.7 0.00 0.05 0.05 24 1016.8
20260508000053 62 237 0.9 8.7 0.00 0.05 0.05 24 1016.8
20260507235544 62 0 1.7 8.7 0.00 0.06 0.05 25 1016.8
20260507235047 62 0 2.6 8.7 0.00 0.06 0.05 24 1016.7
20260507234551 61 327 4.3 9.6 0.00 0.06 0.05 25 1016.8
20260507234048 61 0 1.7 9.6 0.00 0.06 0.05 26 1016.8
20260507233551 61 199 3.5 12.2 0.00 0.06 0.05 24 1016.8
20260507233056 61 278 4.3 12.2 0.00 0.06 0.05 24 1016.8
20260507232548 61 295 1.7 13.0 0.00 0.06 0.05 24 1017.0
20260507232047 61 306 1.7 13.0 0.00 0.06 0.05 24 1016.8
20260507231555 61 296 6.1 13.0 0.00 0.06 0.05 24 1017.0
20260507231048 62 325 3.5 10.4 0.00 0.06 0.05 23 1016.9
20260507230550 62 328 1.7 11.3 0.00 0.06 0.05 25 1016.8
20260507230053 62 33 4.3 11.3 0.00 0.06 0.05 23 1016.8
20260507225546 62 342 4.3 10.4 0.00 0.07 0.05 23 1017.0
20260507225045 62 292 0.0 10.4 0.00 0.07 0.05 22 1016.8
20260507224558 63 217 5.2 14.8 0.00 0.07 0.05 22 1016.8
20260507224049 63 321 1.7 14.8 0.00 0.07 0.05 25 1016.8
20260507223547 62 201 7.0 14.8 0.00 0.07 0.05 24 1016.9
20260507223052 61 245 6.1 13.0 0.00 0.07 0.05 26 1016.9
20260507222551 61 34 6.1 13.0 0.00 0.07 0.05 25 1017.0
20260507222048 61 352 5.2 10.4 0.00 0.07 0.05 24 1016.8
20260507221551 61 352 0.9 13.9 0.00 0.07 0.05 25 1016.9
20260507221048 61 332 2.6 16.5 0.00 0.07 0.05 24 1017.2
20260507220547 61 342 7.8 16.5 0.00 0.07 0.05 24 1017.0
20260507220056 62 75 8.7 15.6 0.00 0.07 0.05 24 1017.1
20260507215548 62 5 7.0 15.6 0.00 0.07 0.05 24 1017.2
20260507215048 62 22 3.5 22.6 0.00 0.07 0.05 24 1017.1
20260507214603 61 0 2.6 22.6 0.00 0.07 0.05 24 1017.4
20260507214050 62 331 3.5 17.4 0.00 0.07 0.05 25 1017.3
20260507213548 61 352 8.7 17.4 0.00 0.07 0.05 25 1017.3
20260507213057 61 238 7.0 13.9 0.00 0.07 0.05 24 1017.4
20260507212548 61 199 6.1 19.1 0.00 0.07 0.05 25 1017.3
20260507212050 61 266 3.5 24.3 0.00 0.07 0.05 26 1017.5
20260507211556 61 349 10.4 24.3 0.00 0.07 0.05 24 1017.6
20260507211048 61 310 6.1 14.8 0.00 0.07 0.05 27 1017.6
20260507210548 60 296 5.2 14.8 0.00 0.07 0.05 27 1017.4
20260507210058 61 283 3.5 9.6 0.00 0.07 0.05 30 1017.7
20260507205548 60 352 4.3 9.6 0.00 0.07 0.05 31 1017.5
20260507205045 60 32 1.7 9.6 0.00 0.07 0.05 31 1017.5
20260507204558 60 352 4.3 13.0 0.00 0.07 0.05 30 1017.7
20260507204048 60 330 6.1 14.8 0.00 0.07 0.05 31 1017.8
20260507203545 60 257 5.2 14.8 0.00 0.07 0.05 32 1018.0
20260507203103 59 317 4.3 13.9 0.00 0.07 0.05 30 1017.9
20260507202547 59 264 7.8 13.9 0.00 0.07 0.05 29 1018.2
20260507202048 58 216 1.7 7.0 0.00 0.07 0.05 31 1018.0
20260507201558 59 309 1.7 7.8 0.00 0.07 0.05 31 1018.3
20260507201050 57 30 2.6 7.8 0.00 0.07 0.05 32 1018.5
20260507200550 57 45 3.5 9.6 0.00 0.07 0.05 31 1018.5
20260507200105 57 338 3.5 9.6 0.00 0.07 0.05 31 1018.7
20260507195548 57 311 4.3 9.6 0.00 0.07 0.05 32 1018.6
20260507195049 57 329 3.5 14.8 0.00 0.07 0.05 32 1018.7
20260507194554 57 339 5.2 14.8 0.00 0.07 0.05 33 1018.8
20260507194044 57 290 5.2 13.0 0.00 0.07 0.05 32 1018.9
20260507193548 57 352 5.2 9.6 0.00 0.07 0.05 32 1018.8
20260507193058 57 55 3.5 8.7 0.00 0.07 0.05 32 1018.9
20260507192546 57 261 1.7 8.7 0.00 0.07 0.05 33 1019.1
20260507192044 57 138 2.6 7.8 0.00 0.07 0.05 33 1019.1
20260507191551 56 111 0.9 7.8 0.00 0.07 0.05 32 1019.1
20260507191049 56 5 1.7 8.7 0.00 0.07 0.05 32 1019.3
20260507190551 57 352 4.3 12.2 0.00 0.07 0.05 34 1019.2
20260507190058 57 252 6.1 12.2 0.00 0.07 0.05 33 1019.3
20260507185549 57 291 6.1 11.3 0.00 0.07 0.05 31 1019.4
20260507185048 58 72 2.6 8.7 0.00 0.07 0.05 33 1019.4
20260507184556 58 225 2.6 8.7 0.00 0.07 0.05 35 1019.4
20260507184048 58 39 3.5 8.7 0.00 0.07 0.05 31 1019.4
20260507183546 58 280 2.6 9.6 0.00 0.07 0.05 35 1019.5
20260507183051 57 21 2.6 12.2 0.00 0.07 0.05 34 1019.4
20260507182548 57 313 6.1 12.2 0.00 0.07 0.05 32 1019.5
20260507182051 57 311 2.6 7.0 0.00 0.07 0.05 33 1019.4
20260507181552 57 10 0.9 9.6 0.00 0.07 0.05 33 1019.3
20260507181048 56 0 0.9 9.6 0.00 0.07 0.05 35 1019.5
20260507180549 56 186 4.3 9.6 0.00 0.07 0.05 32 1019.4
20260507180052 56 194 1.7 7.8 0.00 0.07 0.05 31 1019.4
20260507175550 56 0 4.3 9.6 0.00 0.08 0.05 34 1019.3
20260507175048 56 283 5.2 11.3 0.00 0.08 0.05 34 1019.3
20260507174558 56 198 4.3 11.3 0.00 0.08 0.05 32 1019.3
20260507174049 56 169 6.1 11.3 0.00 0.08 0.05 32 1019.4
20260507173548 56 185 4.3 11.3 0.00 0.08 0.05 33 1019.7
20260507173051 56 254 5.2 11.3 0.00 0.08 0.05 32 1019.7
20260507172548 55 205 4.3 11.3 0.00 0.08 0.05 35 1019.8
20260507172048 55 194 4.3 12.2 0.00 0.08 0.05 35 1020.1
20260507171600 55 212 7.0 12.2 0.00 0.08 0.05 34 1020.1
20260507171045 55 213 7.0 13.0 0.00 0.08 0.05 35 1020.1
20260507170545 54 186 7.8 15.6 0.00 0.08 0.05 35 1020.1
20260507165544 54 271 7.8 14.8 0.00 0.08 0.05 38 1020.1
20260507165044 53 263 7.0 17.4 0.00 0.08 0.05 43 1020.1
20260507164601 53 243 8.7 18.2 0.00 0.08 0.05 40 1020.2
20260507164049 52 211 10.4 18.2 0.00 0.08 0.05 41 1020.2
20260507163545 51 207 8.7 16.5 0.00 0.08 0.05 43 1020.2
20260507163055 51 246 8.7 14.8 0.00 0.08 0.05 43 1020.3
20260507162548 51 208 6.1 13.9 0.00 0.08 0.05 44 1020.5
20260507162048 51 250 7.8 15.6 0.00 0.08 0.05 44 1020.7
20260507161555 51 229 7.0 15.6 0.00 0.08 0.05 43 1020.8
20260507161045 52 262 8.7 15.6 0.00 0.08 0.05 40 1020.8
20260507160549 52 265 5.2 13.9 0.00 0.08 0.05 45 1020.7
20260507160058 51 225 8.7 15.6 0.01 0.08 0.05 42 1020.6
20260507155547 51 238 8.7 15.6 0.01 0.08 0.05 43 1020.6
20260507155050 50 267 8.7 16.5 0.01 0.08 0.05 44 1020.6
20260507154559 49 231 7.0 18.2 0.01 0.08 0.05 45 1020.6
20260507154044 49 211 8.7 18.2 0.01 0.08 0.05 45 1020.7
20260507153545 49 238 7.8 22.6 0.01 0.08 0.05 45 1020.8
20260507153059 48 267 11.3 23.5 0.02 0.08 0.05 44 1020.9
20260507152545 48 248 10.4 24.3 0.02 0.08 0.05 44 1020.8
20260507152049 48 271 12.2 24.3 0.03 0.08 0.05 43 1020.6
20260507151552 47 234 12.2 21.7 0.03 0.08 0.05 43 1020.8
20260507151049 47 254 12.2 21.7 0.04 0.08 0.05 44 1020.7
20260507150549 47 272 11.3 18.2 0.04 0.08 0.05 45 1020.7
20260507150055 46 209 9.6 22.6 0.03 0.07 0.04 46 1020.8
20260507145548 46 235 11.3 22.6 0.03 0.07 0.04 45 1020.6
20260507145050 45 246 13.0 21.7 0.04 0.07 0.04 45 1020.6
20260507144553 45 257 12.2 22.6 0.04 0.07 0.04 46 1020.5
20260507144048 45 251 12.2 22.6 0.04 0.07 0.04 44 1020.5
20260507143548 45 255 11.3 21.7 0.04 0.07 0.04 43 1020.8
20260507143058 45 241 9.6 21.7 0.03 0.06 0.03 45 1020.7
20260507142548 44 257 10.4 21.7 0.03 0.06 0.03 45 1020.7
20260507142049 44 234 12.2 20.9 0.02 0.05 0.02 46 1020.6
20260507141555 44 238 12.2 20.9 0.02 0.05 0.02 45 1020.5
20260507141048 43 281 12.2 21.7 0.01 0.04 0.01 46 1020.5
20260507140549 43 271 13.0 24.3 0.01 0.04 0.01 46 1020.3
20260507140056 42 225 13.0 24.3 0.01 0.04 0.01 46 1020.6
20260507135548 42 253 13.9 24.3 0.01 0.04 0.01 46 1020.5
20260507135049 42 280 13.9 25.2 0.00 0.03 0.00 46 1020.5
20260507134554 41 249 14.8 25.2 0.00 0.03 0.00 46 1020.5
20260507134049 41 254 14.8 25.2 0.00 0.03 0.00 45 1020.1
20260507133548 41 265 13.0 26.1 0.00 0.03 0.00 46 1020.4
20260507133106 40 252 16.5 26.1 0.00 0.03 0.00 46 1020.1
20260507132547 41 175 12.2 22.6 0.00 0.03 0.00 45 1020.1
20260507132044 40 213 13.0 22.6 0.00 0.03 0.00 46 1020.2
20260507131553 40 252 14.8 22.6 0.00 0.03 0.00 44 1020.2
20260507131049 40 250 12.2 26.9 0.00 0.03 0.00 45 1020.2
20260507130544 39 244 10.4 26.9 0.00 0.03 0.00 46 1020.1
20260507130106 39 246 12.2 26.1 0.00 0.03 0.00 45 1019.9
20260507125548 39 214 16.5 26.1 0.00 0.03 0.00 45 1019.9
20260507125044 39 272 14.8 25.2 0.00 0.03 0.00 44 1019.8
20260507124551 39 242 13.9 25.2 0.00 0.03 0.00 44 1019.9
20260507124048 39 257 13.9 23.5 0.00 0.03 0.00 44 1019.8
20260507123548 39 228 13.0 26.1 0.00 0.03 0.00 44 1019.9
20260507123053 39 240 13.9 26.1 0.00 0.03 0.00 44 1019.8
20260507122548 39 221 13.0 23.5 0.00 0.03 0.00 44 1019.8
20260507122048 39 268 13.0 23.5 0.00 0.03 0.00 44 1019.8
20260507121606 38 244 10.4 20.9 0.00 0.03 0.00 46 1019.8
20260507121047 38 229 9.6 20.0 0.00 0.03 0.00 47 1019.8
20260507120547 37 235 11.3 20.0 0.00 0.03 0.00 48 1019.8
20260507120100 36 259 11.3 20.0 0.00 0.03 0.00 50 1019.8
20260507115545 36 236 12.2 19.1 0.00 0.03 0.00 51 1019.7
20260507115051 36 238 10.4 17.4 0.00 0.03 0.00 49 1019.6
20260507114633 36 246 9.6 17.4 0.00 0.03 0.00 49 1019.7
20260507114044 36 246 10.4 21.7 0.00 0.03 0.00 50 1019.7
20260507113548 36 215 9.6 21.7 0.00 0.03 0.00 49 1019.7
20260507113052 36 249 11.3 21.7 0.00 0.03 0.00 48 1019.9
20260507112549 36 239 11.3 20.0 0.00 0.03 0.00 49 1019.8
20260507112045 36 259 9.6 19.1 0.00 0.03 0.00 49 1020.0
20260507111555 36 275 8.7 19.1 0.00 0.03 0.00 48 1019.8
20260507111049 36 224 8.7 20.9 0.00 0.03 0.00 49 1019.8
20260507110548 36 273 10.4 20.9 0.00 0.03 0.00 48 1019.9
20260507110055 35 234 12.2 18.2 0.00 0.03 0.00 49 1020.0
20260507105547 35 227 11.3 20.0 0.00 0.03 0.00 49 1019.9
20260507105047 36 277 10.4 20.0 0.00 0.03 0.00 48 1019.9
20260507104551 36 247 9.6 20.0 0.00 0.03 0.00 46 1019.8
20260507104048 36 253 7.8 18.2 0.00 0.03 0.00 45 1019.7
20260507103548 36 258 9.6 18.2 0.00 0.03 0.00 46 1019.7
20260507103054 36 240 9.6 17.4 0.00 0.03 0.00 47 1019.7
20260507102547 36 275 10.4 20.0 0.00 0.03 0.00 46 1019.6
20260507102048 36 242 10.4 22.6 0.00 0.03 0.00 45 1019.8
20260507101603 36 242 13.0 23.5 0.00 0.03 0.00 45 1019.9
20260507101048 36 248 13.0 23.5 0.00 0.03 0.00 46 1019.9
20260507100549 36 263 13.9 23.5 0.00 0.03 0.00 46 1019.9
20260507100057 36 236 12.2 22.6 0.00 0.03 0.00 45 1020.0
20260507095548 36 250 11.3 20.9 0.00 0.03 0.00 45 1020.0
20260507095047 37 259 11.3 22.6 0.00 0.03 0.00 44 1019.9
20260507094552 37 288 13.9 22.6 0.00 0.03 0.00 42 1019.9
20260507094047 37 259 11.3 21.7 0.00 0.03 0.00 43 1019.8
20260507093547 37 268 12.2 21.7 0.00 0.03 0.00 43 1019.8
20260507093051 37 248 11.3 20.9 0.00 0.03 0.00 43 1019.9
20260507092548 36 253 12.2 20.9 0.00 0.03 0.00 45 1019.9
20260507092051 37 288 13.0 21.7 0.00 0.03 0.00 45 1019.9
20260507091555 37 290 12.2 21.7 0.00 0.03 0.00 44 1020.0
20260507091047 36 271 11.3 22.6 0.00 0.03 0.00 45 1020.0
20260507090548 36 242 12.2 22.6 0.00 0.03 0.00 45 1020.1
20260507090100 36 273 14.8 21.7 0.00 0.03 0.00 46 1020.1
20260507085548 36 258 12.2 24.3 0.00 0.03 0.00 46 1020.2
20260507085048 36 275 13.9 24.3 0.00 0.03 0.00 48 1020.1
20260507084558 36 277 14.8 25.2 0.00 0.03 0.00 47 1020.3
20260507084052 36 283 16.5 25.2 0.00 0.03 0.00 47 1020.3
20260507083548 36 284 12.2 22.6 0.00 0.03 0.00 47 1020.4
20260507083053 36 238 14.8 22.6 0.00 0.03 0.00 47 1020.2
20260507082547 36 263 13.0 22.6 0.00 0.03 0.00 47 1020.3
20260507082047 35 269 11.3 20.0 0.00 0.03 0.00 50 1020.4
20260507081553 35 305 10.4 23.5 0.00 0.03 0.00 51 1020.3
20260507081047 35 274 13.0 23.5 0.00 0.03 0.00 51 1020.4
20260507080731 35 298 12.2 23.5 0.00 0.03 0.00 53 1020.5
20260507080548 35 298 12.2 23.5 0.00 0.03 0.00 53 1020.5
20260507080120 34 275 12.2 23.5 0.00 0.03 0.00 54 1020.3
20260507075547 35 261 11.3 21.7 0.00 0.03 0.00 52 1020.4
20260507075047 35 260 13.0 23.5 0.00 0.03 0.00 52 1020.4
20260507074558 35 266 14.8 23.5 0.00 0.03 0.00 51 1020.4
20260507074122 35 261 11.3 18.2 0.00 0.03 0.00 52 1020.3
20260507073548 35 272 8.7 14.8 0.00 0.03 0.00 53 1020.5
20260507073104 35 309 8.7 14.8 0.00 0.03 0.00 52 1020.6
20260507072550 35 238 10.4 15.6 0.00 0.03 0.00 51 1020.7
20260507072047 34 269 9.6 15.6 0.00 0.03 0.00 55 1020.6
20260507071640 35 311 8.7 14.8 0.00 0.03 0.00 57 1020.6
20260507071047 35 277 9.6 13.9 0.00 0.03 0.00 56 1020.5
20260507070547 34 296 9.6 17.4 0.00 0.03 0.00 57 1020.5
20260507070055 34 281 9.6 17.4 0.00 0.03 0.00 58 1020.7
20260507065548 34 273 10.4 17.4 0.00 0.03 0.00 58 1020.6
20260507065047 34 284 7.8 15.6 0.00 0.03 0.00 62 1020.7
20260507064549 33 286 9.6 15.6 0.00 0.03 0.00 63 1020.7
20260507064048 33 295 8.7 13.9 0.00 0.03 0.00 64 1020.8
20260507063548 33 252 9.6 14.8 0.00 0.03 0.00 67 1021.0
20260507063056 33 294 9.6 15.6 0.00 0.03 0.00 69 1020.9
20260507062548 32 288 7.8 15.6 0.00 0.03 0.00 72 1020.9
20260507062048 31 288 7.0 14.8 0.00 0.03 0.00 76 1021.0
20260507061553 29 266 5.2 12.2 0.00 0.03 0.00 82 1020.9
20260507061047 28 251 2.6 7.8 0.00 0.03 0.00 86 1021.0